This is the latest recevied weather packets stored in our database for station/object KJ4AJP. If no packets are shown the sender has not sent any weather packets the latest 10 day(s).
| Time | Temp. | Humidity | Pressure | Rain* | Wind** | Luminosity | Snow |
|---|---|---|---|---|---|---|---|
| 1777646625 | 16.67° C | 53% | 1018 hPa | 0 mm | - | 489 W/m² | - |
| 1777646321 | 16.11° C | 56% | 1017.6 hPa | 0 mm | - | 420 W/m² | - |
| 1777646018 | 15.56° C | 56% | 1017.5 hPa | 0 mm | - | 396 W/m² | - |
| 1777645715 | 15.56° C | 58% | 1017.6 hPa | 0 mm | - | 423 W/m² | - |
| 1777645412 | 15° C | 58% | 1017.4 hPa | 0 mm | - | 389 W/m² | - |
| 1777645107 | 15° C | 59% | 1017.3 hPa | 0 mm | - | 320 W/m² | - |
| 1777644804 | 14.44° C | 63% | 1017.3 hPa | 0 mm | - | 356 W/m² | - |
| 1777644502 | 15° C | 61% | 1017.3 hPa | 0 mm | - | 238 W/m² | - |
| 1777644198 | 15° C | 65% | 1017.5 hPa | 0 mm | - | 115 W/m² | - |
| 1777643894 | 14.44° C | 66% | 1017.2 hPa | 0 mm | - | 189 W/m² | - |
| 1777643592 | 14.44° C | 67% | 1017.4 hPa | 0 mm | - | 86 W/m² | - |
| 1777643289 | 14.44° C | 69% | 1017.3 hPa | 0 mm | - | 77 W/m² | - |
| 1777642985 | 13.89° C | 73% | 1017.5 hPa | 0 mm | - | 201 W/m² | - |
| 1777642682 | 13.89° C | 74% | 1017.4 hPa | 0 mm | - | 59 W/m² | - |
| 1777642379 | 13.89° C | 75% | 1017.4 hPa | 0 mm | - | 74 W/m² | - |
| 1777642075 | 13.89° C | 76% | 1017.3 hPa | 0 mm | - | 55 W/m² | - |
| 1777641772 | 13.33° C | 79% | 1017.2 hPa | 0 mm | - | 55 W/m² | - |
| 1777641472 | 13.33° C | 80% | 1017.2 hPa | 0 mm | - | 54 W/m² | - |
| 1777641167 | 12.78° C | 80% | 1017.2 hPa | 0 mm | - | 56 W/m² | - |
| 1777640863 | 12.78° C | 82% | 1017 hPa | 0 mm | - | 82 W/m² | - |
| 1777640561 | 12.78° C | 85% | 1017.1 hPa | 0 mm | - | 56 W/m² | - |
| 1777640257 | 12.22° C | 94% | 1017.1 hPa | 0 mm | - | 104 W/m² | - |
| 1777639953 | 11.67° C | 98% | 1016.8 hPa | 0 mm | - | 51 W/m² | - |
| 1777639651 | 11.11° C | 99% | 1016.9 hPa | 0 mm | - | 45 W/m² | - |
| 1777639349 | 11.11° C | 99% | 1016.9 hPa | 0 mm | - | 44 W/m² | - |
* Rain latest hour (hover to see other rain measurements)
** Current wind speed in m/s (hover to see current wind gust speed)